Location: Detroit
(42.3310°N, 83.0460°W)
Time: 20:28:53
(UTC-04:00)

A-11 Canister half - Pass Details

Date: 16 February 2023
Orbit: 1526 x 1682 km, 47.3° (Epoch: 29 March)

Event Time Altitude Azimuth Distance (km) Brightness Sun altitude
Rises 07:16:22 0° 290° (WNW) 4,681 - -2.8°
Exits shadow 07:17:15 - 290° (WNW) 4,394 10.7 -2.7°
Reaches altitude 10° 07:19:24 10° 292° (WNW) 3,696 10.4 -2.3°
Maximum altitude 07:28:45 79° 19° (NNE) 1,561 9.2 -0.6°
Drops below altitude 10° 07:38:14 10° 107° (ESE) 3,748 13.6 1.1°
Sets 07:41:20 0° 109° (ESE) 4,749 15.9 1.6°
